Hourly Weather Roundup
Issued by NWS Central Illinois

Home | Current Version | Previous Version | Text Only | Print | Product List | Glossary On
Versions: 1 2 3 4 5 6 7 8 9 10 11 12 13 14 15 16 17 18 19 20 21 22 23 24 25 26 27 28 29 30 31 32 33 34 35 36 37 38 39 40 41 42 43 44 45 46 47 48 49 50
000
NZUS43 KILX 260810
HWRILX

AREA WEATHER ROUNDUP
NATIONAL WEATHER SERVICE, LINCOLN IL
300 AM CDT MON SEP 26 2016


CITY           SKY/WX    TMP DP  RH WIND       PRES   REMARKS
BLOOMINGTON    LGT RAIN  59  56  89 W8        30.05F
CHAMPAIGN      CLOUDY    62  54  74 NW14      30.04F
DANVILLE       LGT RAIN  61  57  87 W12G21    30.00R
DECATUR        RAIN      59  54  83 NW12G23   30.07S
EFFINGHAM      RAIN      61  60  95 W8        30.07S
FLORA          CLOUDY    63  58  83 N8G16     30.05F
GALESBURG      CLOUDY   N/A N/A N/A W5        30.08S
JACKSONVILLE   CLOUDY    60  58  93 W6        30.10F
LACON          CLOUDY    61  50  66 W7        30.03F
LAWRENCEVILLE  CLOUDY    67  59  75 NW15      30.05R
LITCHFIELD     DRIZZLE   57  53  86 NW9       30.10S
$$


CITY           SKY/WX    TMP DP  RH WIND       PRES   REMARKS
LINCOLN        LGT RAIN  61  57  88 CALM      30.07S
MACOMB         CLOUDY    60  51  73 W6        30.12S
MATTOON        CLOUDY    60  57  89 NW9       30.04F
MT CARMEL AP   RAIN      67  64  89 NW10G22   30.03R
OLNEY-NOBLE AP CLOUDY    61  59  94 NW10G17   30.06R
PARIS          RAIN      61  59  94 NW8       30.06R
PEORIA         CLOUDY    62  52  69 NW7       30.06S
PONTIAC        CLOUDY    60  58  94 W8        30.03F
RANTOUL        LGT RAIN  62  57  86 NW13G23   30.04S
ROBINSON       CLOUDY    65  59  82 NW12G17   30.03R
SPRINGFIELD    LGT RAIN  60  57  89 W9        30.09F
TAYLORVILLE    LGT RAIN  57  55  92 CALM      30.08F
$$

...REGIONAL REPORTS...


CITY           SKY/WX    TMP DP  RH WIND       PRES   REMARKS
CHICAGO O`HARE CLOUDY    62  52  69 W15       29.96S
KANKAKEE       RAIN      58  57  96 W5        30.01F
MOLINE         CLOUDY    61  50  67 W14       30.05S
MOUNT STERLING CLOUDY    58  54  85 W5        30.10F
MOUNT VERNON   CLOUDY    64  54  68 N7        30.08R
PITTSFIELD     CLOUDY    60  56  88 W5        30.13S
QUINCY         CLOUDY    60  52  74 W5        30.11F
ROCKFORD       CLOUDY    60  50  69 W9        30.01S
$$


CITY           SKY/WX    TMP DP  RH WIND       PRES   REMARKS
BURLINGTON     CLOUDY    56  52  86 W6        30.10S
CEDAR RAPIDS   CLEAR     52  49  89 W9        30.07S
DES MOINES     CLEAR     54  43  66 NW9       30.14S
KIRKSVILLE     CLOUDY    57  50  77 W8        30.17R
OTTUMWA        CLEAR     51  46  83 W7        30.13R
ST LOUIS       LGT RAIN  62  56  80 NW9       30.12S
$$


CITY           SKY/WX    TMP DP  RH WIND       PRES   REMARKS
TERRE HAUTE    LGT RAIN  67  56  67 N15G26    30.01R
EVANSVILLE     PTCLDY    74  68  81 W9        29.98R
INDIANAPOLIS   CLOUDY    70  68  93 NW9       29.95F
LAFAYETTE      CLOUDY    64  57  78 W13       29.99R
MADISON        CLOUDY    58  48  69 VRB3      29.95F
MILWAUKEE      CLOUDY    62  51  67 W15G24    29.92S
$$






USA.gov is the U.S. government's official web portal to all federal, state and local government web resources and services.